GRBBETA

Last updated on Sun Apr 12 2026 00:03:56 GMT+0000 (Coordinated Universal Time)

1 60237U 24128C 26101.37497384 .00003203 00000+0 22713-3 0 9995 2 60237 61.9888 90.5788 0048385 120.5940 239.9939 15.06117716 96202
UTC large
Height (km)
Speed (km/s)
/
Latitude / Longitude
Inclination (degrees)
Orbital Period (minutes)
Azimuth
Elevation
Range (km)
Doppler Factor

Next 0 passes for location: London (51.5072 / 0.1276)

Sorry there are no passes over London.
GRBBETA